HAIYANG-2A

Last updated on Mon Oct 14 2024 00:02:24 GMT+0000 (Coordinated Universal Time)

1 37781U 11043A 24287.47753879 .00000090 00000+0 13217-3 0 9993 2 37781 99.3313 289.0576 0001554 105.5225 254.6098 13.78805960662632
UTC large
Height (km)
Speed (km/s)
/
Latitude / Longitude
Inclination (degrees)
Orbital Period (minutes)
Azimuth
Elevation
Range (km)
Doppler Factor

Next 0 passes for location: London (51.5072 / 0.1276)

Sorry there are no passes over London.